Time,TemperatureF,DewpointF,PressureIn,WindDirection,WindDirectionDegrees,WindSpeedMPH,WindSpeedGustMPH,Humidity,HourlyPrecipIn,Conditions,Clouds,dailyrainin,SoftwareType,DateUTC
2013-12-15 00:42:00,45.0,26.0,30.13,NNE,29,1.0,-999.0,47,-99.99,,,-99.99,,2013-12-15 08:42:00,
2013-12-15 03:43:00,43.0,30.0,30.10,NW,316,0.0,-999.0,59,-99.99,,,-99.99,,2013-12-15 11:43:00,
2013-12-15 06:42:00,41.0,30.0,30.09,NE,46,0.0,-999.0,64,-99.99,,,-99.99,,2013-12-15 14:42:00,
2013-12-15 06:52:00,41.0,30.0,30.09,NE,46,0.0,-999.0,64,-99.99,,,-99.99,,2013-12-15 14:52:00,
2013-12-15 07:02:00,41.0,30.0,30.09,NE,46,0.0,-999.0,64,-99.99,,,-99.99,,2013-12-15 15:02:00,
2013-12-15 09:43:00,47.0,33.0,30.11,NNE,19,0.0,-999.0,59,-99.99,,,-99.99,,2013-12-15 17:43:00,
2013-12-15 09:52:00,47.0,33.0,30.11,NNE,19,0.0,-999.0,59,-99.99,,,-99.99,,2013-12-15 17:52:00,
2013-12-15 10:02:00,47.0,33.0,30.11,NNE,19,0.0,-999.0,59,-99.99,,,-99.99,,2013-12-15 18:02:00,
2013-12-15 12:42:00,58.0,37.0,30.07,West,269,4.0,-999.0,45,-99.99,,,-99.99,,2013-12-15 20:42:00,
2013-12-15 12:52:00,58.0,37.0,30.07,West,269,4.0,-999.0,45,-99.99,,,-99.99,,2013-12-15 20:52:00,
2013-12-15 13:02:00,58.0,37.0,30.07,West,269,4.0,-999.0,45,-99.99,,,-99.99,,2013-12-15 21:02:00,
2013-12-15 15:42:00,63.0,33.0,30.02,SW,234,2.0,-999.0,32,-99.99,,,-99.99,,2013-12-15 23:42:00,
2013-12-15 15:52:00,63.0,33.0,30.02,SW,234,2.0,-999.0,32,-99.99,,,-99.99,,2013-12-15 23:52:00,
2013-12-15 16:02:00,63.0,33.0,30.02,SW,234,2.0,-999.0,32,-99.99,,,-99.99,,2013-12-16 00:02:00,
2013-12-15 18:42:00,52.0,28.0,30.01,NNE,22,0.0,-999.0,39,-99.99,,,-99.99,,2013-12-16 02:42:00,
2013-12-15 18:52:00,52.0,28.0,30.01,NNE,22,0.0,-999.0,39,-99.99,,,-99.99,,2013-12-16 02:52:00,
2013-12-15 19:01:00,52.0,28.0,30.01,NNE,22,0.0,-999.0,39,-99.99,,,-99.99,,2013-12-16 03:01:00,
2013-12-15 21:10:00,51.0,26.0,30.02,NNE,22,0.0,-999.0,38,-99.99,,,-99.99,,2013-12-16 05:10:00,
2013-12-15 21:43:00,51.0,26.0,30.02,NNE,22,0.0,-999.0,38,-99.99,,,-99.99,,2013-12-16 05:43:00,
2013-12-15 21:53:00,51.0,26.0,30.02,NNE,22,0.0,-999.0,38,-99.99,,,-99.99,,2013-12-16 05:53:00,
2013-12-15 22:02:00,51.0,26.0,30.02,NNE,22,0.0,-999.0,38,-99.99,,,-99.99,,2013-12-16 06:02:00,